#timestamp,LO_Frequency,Hit,StdDev 
1621371615.0,286046999.2,N
1621371615.9,286046999.2,N
1621371635.8,286047000.5,N
1621371655.6,286047000.3,N
1621371675.4,286047000.6,N
1621371695.3,286046999.7,N
1621371715.1,286046999.4,N
1621371735.9,286046996.6,N
1621371755.7,286046998.1,N
1621371775.5,286046998.1,N
1621371795.4,286046998.2,N
1621371815.2,286047000.8,N
1621371835.0,286046997.3,N
1621371835.9,286046997.3,N
1621371855.8,286046995.1,Y
1621371875.6,286046999.4,P
1621371895.5,286046996.8,P
1621371915.3,286046996.9,N
1621371935.1,286046999.3,N
1621371955.9,286046999.0,N
1621371975.7,286046994.9,Y
1621371995.6,286046999.3,P
1621372015.4,286047000.8,N
1621372035.2,286047001.0,N
1621372055.1,286047000.8,N
1621372056.0,286047000.8,N
1621372075.8,286046999.9,N
1621372095.6,286047002.6,N
1621372115.5,286047002.1,N
1621372135.3,286047000.2,N
1621372155.2,286047000.0,N
1621372175.9,286046998.6,N
1621372195.7,286047002.8,N
1621372215.6,286047002.2,N
1621372235.4,286047002.7,N
1621372255.3,286047002.0,N
1621372275.1,286047001.5,N
1621372276.0,286047001.5,N
1621372295.8,286047001.3,N
1621372315.7,286047002.3,N
1621372335.5,286047004.0,Y
1621372355.4,286047003.1,P
1621372375.2,286047003.8,P
1621372395.0,286047003.7,P
1621372395.9,286047003.7,Y
1621372415.8,286047000.8,P
1621372435.6,286046999.8,N
1621372455.4,286046999.9,N
1621372475.3,286047002.4,N
1621372495.1,286047000.5,N
1621372515.9,286046998.4,N
1621372535.7,286046998.1,N
1621372555.5,286046998.6,N
1621372575.4,286046998.5,N
1621372595.2,286046999.2,N
1621372615.0,286046998.2,N
1621372615.9,286046998.2,N
1621372635.8,286046998.7,N
1621372655.6,286046997.2,N
1621372675.5,286046998.3,N
1621372695.3,286046999.0,N
1621372715.1,286046999.1,N
1621372735.9,286046999.2,N
1621372755.7,286046996.6,N
1621372775.5,286046998.9,N
1621372795.4,286046999.0,N
1621372815.2,286046998.4,N
1621372835.1,286046999.3,N
1621372836.0,286046999.3,N
1621372855.8,286046998.2,N
1621372875.6,286046999.4,N
1621372895.5,286047001.1,N
1621372915.3,286047000.4,N
1621372935.1,286047001.0,N
1621372955.9,286047001.0,N
1621372975.7,286046998.8,N
1621372995.6,286047001.0,N
1621373015.4,286046998.1,N
1621373035.2,286046998.4,N
1621373055.1,286047000.8,N
1621373056.0,286047000.8,N
1621373075.8,286046999.9,N
1621373095.7,286047000.2,N
1621373115.5,286047000.2,N
1621373135.3,286047000.5,N
1621373155.2,286047002.6,N
1621373175.9,286047002.1,N
1621373195.7,286047002.4,N
1621373215.6,286047002.4,N
1621373235.4,286047000.4,N
1621373255.3,286047001.1,N
1621373275.1,286046999.7,N
1621373276.0,286046999.7,N
1621373295.8,286047000.1,N
1621373315.7,286047000.5,N
1621373335.5,286047001.0,N
1621373355.3,286046998.6,N
1621373375.2,286046996.9,N
1621373395.0,286047001.1,N
1621373395.9,286047001.1,N
1621373415.8,286047000.4,N
1621373435.6,286047002.7,N
1621373455.4,286047001.9,N
1621373475.3,286047001.7,N
1621373495.1,286047004.2,Y
1621373515.8,286047002.2,P
1621373535.7,286047000.1,N
1621373555.5,286047002.1,N
1621373575.4,286047000.6,N
1621373595.2,286047000.7,N
1621373615.0,286046996.5,Y
1621373615.9,286046996.5,P
1621373635.8,286046995.7,N
1621373655.6,286046999.3,N
1621373675.4,286046997.5,N
1621373695.3,286046999.0,N
1621373715.1,286046998.3,N
1621373735.9,286046998.4,N
1621373755.7,286046999.1,N
1621373775.5,286046994.9,Y
1621373795.4,286046998.7,P
1621373815.2,286047000.3,N
1621373835.1,286047002.5,N
1621373836.0,286047002.5,N
1621373855.8,286047001.4,N
1621373875.6,286046999.8,N
1621373895.5,286046998.2,N
1621373915.3,286046997.0,N
1621373935.1,286046997.6,N
1621373955.9,286046994.9,N
1621373975.7,286046997.6,N
1621373995.6,286046999.5,N
1621374015.4,286047000.1,N
1621374035.2,286047000.8,N
1621374055.1,286047000.1,N
1621374056.0,286047000.1,N
1621374075.8,286046999.9,N
1621374095.6,286046998.4,N
1621374115.5,286047000.4,N
1621374135.3,286047001.1,N
1621374155.2,286046998.6,N
1621374175.9,286046998.3,N
1621374195.7,286046999.6,N
1621374215.6,286046999.9,N
1621374235.4,286047000.0,N
1621374255.2,286046997.2,N
1621374275.1,286046999.5,N
1621374276.0,286046999.5,N
1621374295.8,286046998.4,N
1621374315.7,286046998.8,N
1621374335.5,286047000.2,N
1621374355.3,286047001.6,N
1621374375.2,286047001.6,N
1621374395.0,286046998.3,N
1621374395.9,286046998.3,N
1621374415.8,286046999.0,N
1621374435.6,286046996.5,N
1621374455.4,286046998.9,N
1621374475.5,286046999.3,N
1621374495.4,286046999.5,N
1621374515.2,286046997.1,N
1621374535.0,286046995.3,Y
1621374535.9,286046995.3,P
1621374555.8,286046997.1,N
1621374575.6,286046995.0,P
1621374595.4,286046997.0,N
1621374615.3,286046997.0,N
1621374635.1,286046998.8,N
1621374655.9,286047002.8,N
1621374675.7,286047000.7,N
1621374695.5,286046998.3,N
1621374715.4,286046999.6,N
1621374735.2,286046997.4,N
1621374755.1,286046998.0,N
1621374756.0,286046998.0,N
1621374775.8,286046997.4,N
1621374795.6,286046993.8,Y
1621374815.5,286046997.5,P
1621374835.3,286046995.6,P
1621374855.2,286046995.6,P
1621374875.9,286046997.5,N
1621374895.7,286046999.1,N
1621374915.6,286046998.8,N
1621374935.4,286047001.2,N
1621374955.3,286046998.2,N
1621374975.1,286046999.2,N
1621374976.0,286046999.2,N
1621374995.8,286046996.9,N
1621375015.7,286046997.7,N
1621375035.5,286046997.5,N
1621375055.3,286046996.3,N
1621375075.2,286046991.7,Y
1621375095.0,286046993.5,P
1621375095.9,286046993.5,N
1621375115.8,286046991.7,P
1621375135.6,286046994.7,N
1621375155.4,286046994.1,N
1621375175.3,286046995.3,N
1621375195.1,286046997.9,N
